,,PA_Meas_PMT16A,,PR_Meas_QMR101_102,,RH_Meas_QMH101,,SR_Meas_QMS101,,TA_Meas_QMH101,,GenWind,,GenWind,
time,status,PA,status,PR,status,RH,status,SR,status,TA,status,DirAvg,status,SpdAvg,
2009-10-21, 00:00:04,VALID,918.901,VALID,0,VALID,97.8313,VALID,0,VALID,19.5828,VALID,126,VALID,1.46094,
2009-10-21, 00:01:04,VALID,918.899,VALID,0,VALID,97.8237,VALID,0,VALID,19.6038,VALID,130,VALID,1.09375,
2009-10-21, 00:02:04,VALID,918.888,VALID,0,VALID,97.816,VALID,0,VALID,19.5828,VALID,130,VALID,1.0457,
2009-10-21, 00:03:04,VALID,918.857,VALID,0,VALID,97.8389,VALID,0,VALID,19.6038,VALID,130,VALID,1.17969,
2009-10-21, 00:04:04,VALID,918.829,VALID,0,VALID,97.8465,VALID,0,VALID,19.6038,VALID,136,VALID,1.58516,
2009-10-21, 00:05:04,VALID,918.783,VALID,0,VALID,97.8542,VALID,0,VALID,19.6038,VALID,126,VALID,1.38789,
2009-10-21, 00:06:04,VALID,918.744,VALID,0,VALID,97.8465,VALID,0,VALID,19.6038,VALID,134,VALID,1.29492,
2009-10-21, 00:07:04,VALID,918.703,VALID,0,VALID,97.8313,VALID,0,VALID,19.6233,VALID,157,VALID,0.901953,
2009-10-21, 00:08:04,VALID,918.677,VALID,0,VALID,97.8465,VALID,0,VALID,19.6038,VALID,157,VALID,0.792969,
2009-10-21, 00:09:04,VALID,918.635,VALID,0,VALID,97.8542,VALID,0,VALID,19.5828,VALID,157,VALID,0.583984,
2009-10-21, 00:10:04,VALID,918.634,VALID,0,VALID,97.8237,VALID,0,VALID,19.6023,VALID,157,VALID,1.09844,
2009-10-21, 00:11:04,VALID,918.643,VALID,0,VALID,97.8389,VALID,0,VALID,19.6038,VALID,157,VALID,0.741016,
2009-10-21, 00:12:04,VALID,918.617,VALID,0,VALID,97.8389,VALID,0,VALID,19.5843,VALID,157,VALID,0.982813,
2009-10-21, 00:13:04,VALID,918.597,VALID,0,VALID,97.8313,VALID,0,VALID,19.5843,VALID,157,VALID,0.826563,
2009-10-21, 00:14:04,VALID,918.608,VALID,0,VALID,97.8313,VALID,0,VALID,19.5633,VALID,157,VALID,0.862109,
2009-10-21, 00:15:04,VALID,918.591,VALID,0,VALID,97.8389,VALID,0,VALID,19.5648,VALID,157,VALID,1.32891,
2009-10-21, 00:16:04,VALID,918.607,VALID,0,VALID,97.8465,VALID,0,VALID,19.5438,VALID,157,VALID,1.33086,
2009-10-21, 00:17:04,VALID,918.621,VALID,0,VALID,97.8465,VALID,0,VALID,19.5453,VALID,157,VALID,0.754687,
2009-10-21, 00:18:04,VALID,918.598,VALID,0,VALID,97.8389,VALID,0,VALID,19.5648,VALID,156,VALID,0.682031,
2009-10-21, 00:19:04,VALID,918.585,VALID,0,VALID,97.8313,VALID,0,VALID,19.5453,VALID,157,VALID,0.476172,
2009-10-21, 00:20:04,VALID,918.58,VALID,0,VALID,97.8313,VALID,0,VALID,19.5648,VALID,157,VALID,0.535547,
2009-10-21, 00:21:04,VALID,918.615,VALID,0,VALID,97.8618,VALID,0,VALID,19.5453,VALID,157,VALID,0.45625,
2009-10-21, 00:22:04,VALID,918.592,VALID,0,VALID,97.8465,VALID,0,VALID,19.5453,VALID,157,VALID,0.414453,
2009-10-21, 00:23:04,VALID,918.571,VALID,0,VALID,97.8542,VALID,0.107441,VALID,19.5438,VALID,157,VALID,0.661719,
2009-10-21, 00:24:04,VALID,918.559,VALID,0,VALID,97.8465,VALID,0.107441,VALID,19.5438,VALID,157,VALID,0.401563,
2009-10-21, 00:25:04,VALID,918.529,VALID,0,VALID,97.8694,VALID,0.107441,VALID,19.5438,VALID,157,VALID,0.637109,
2009-10-21, 00:26:04,VALID,918.496,VALID,0,VALID,97.8465,VALID,0.107441,VALID,19.5423,VALID,156,VALID,0.528906,
2009-10-21, 00:27:04,VALID,918.497,VALID,0,VALID,97.8465,VALID,0.107441,VALID,19.5438,VALID,157,VALID,0.656641,
2009-10-21, 00:28:04,VALID,918.494,VALID,0,VALID,97.8542,VALID,0.107441,VALID,19.5633,VALID,157,VALID,0.689844,
2009-10-21, 00:29:04,VALID,918.494,VALID,0,VALID,97.8694,VALID,0,VALID,19.5228,VALID,157,VALID,0.554297,
2009-10-21, 00:30:04,VALID,918.458,VALID,0,VALID,97.8618,VALID,0,VALID,19.5438,VALID,157,VALID,1.14219,
2009-10-21, 00:31:04,VALID,918.479,VALID,0,VALID,97.8618,VALID,0.107441,VALID,19.5633,VALID,157,VALID,0.789453,
2009-10-21, 00:32:04,VALID,918.466,VALID,0,VALID,97.8847,VALID,0.107441,VALID,19.5423,VALID,156,VALID,0.478516,
2009-10-21, 00:33:04,VALID,918.457,VALID,0,VALID,97.8542,VALID,0.107441,VALID,19.5228,VALID,158,VALID,1.13945,
2009-10-21, 00:34:04,VALID,918.459,VALID,0,VALID,97.8618,VALID,0.107441,VALID,19.5228,VALID,158,VALID,1.1207,
2009-10-21, 00:35:04,VALID,918.489,VALID,0,VALID,97.8465,VALID,0.107441,VALID,19.5633,VALID,158,VALID,1.29062,
2009-10-21, 00:36:04,VALID,918.44,VALID,0,VALID,97.8389,VALID,0.107441,VALID,19.5423,VALID,159,VALID,1.06133,
2009-10-21, 00:37:04,VALID,918.459,VALID,0,VALID,97.8694,VALID,0.107441,VALID,19.5828,VALID,159,VALID,1.00859,
2009-10-21, 00:38:04,VALID,918.431,VALID,0,VALID,97.8618,VALID,0,VALID,19.5843,VALID,159,VALID,1.53828,
2009-10-21, 00:39:04,VALID,918.385,VALID,0,VALID,97.8389,VALID,0.107441,VALID,19.5633,VALID,159,VALID,1.24609,
2009-10-21, 00:40:04,VALID,918.383,VALID,0,VALID,97.8313,VALID,0,VALID,19.6038,VALID,159,VALID,1.03086,
2009-10-21, 00:41:04,VALID,918.338,VALID,0,VALID,97.8389,VALID,0,VALID,19.5843,VALID,159,VALID,0.715625,
2009-10-21, 00:42:04,VALID,918.343,VALID,0,VALID,97.8465,VALID,0,VALID,19.6023,VALID,159,VALID,0.508594,
2009-10-21, 00:43:04,VALID,918.3,VALID,0,VALID,97.8618,VALID,0,VALID,19.6023,VALID,159,VALID,0.770703,
2009-10-21, 00:44:04,VALID,918.31,VALID,0,VALID,97.8313,VALID,0,VALID,19.5828,VALID,159,VALID,0.797266,
2009-10-21, 00:45:04,VALID,918.265,VALID,0,VALID,97.8313,VALID,0,VALID,19.5828,VALID,159,VALID,0.939062,
2009-10-21, 00:46:04,VALID,918.245,VALID,0,VALID,97.8313,VALID,0,VALID,19.6038,VALID,159,VALID,0.848047,
2009-10-21, 00:47:04,VALID,918.235,VALID,0,VALID,97.8542,VALID,0,VALID,19.6233,VALID,159,VALID,0.517969,
2009-10-21, 00:48:04,VALID,918.221,VALID,0,VALID,97.8313,VALID,0,VALID,19.5828,VALID,160,VALID,1.17891,
2009-10-21, 00:49:04,VALID,918.235,VALID,0,VALID,97.8618,VALID,0,VALID,19.6038,VALID,155,VALID,0.99375,
2009-10-21, 00:50:04,VALID,918.192,VALID,0,VALID,97.8618,VALID,0,VALID,19.5843,VALID,168,VALID,1.16719,
2009-10-21, 00:51:04,VALID,918.213,VALID,0,VALID,97.8618,VALID,0,VALID,19.5828,VALID,167,VALID,0.889453,
2009-10-21, 00:52:04,VALID,918.227,VALID,0,VALID,97.8618,VALID,0,VALID,19.6233,VALID,139,VALID,1.3793,
2009-10-21, 00:53:04,VALID,918.218,VALID,0,VALID,97.8847,VALID,0,VALID,19.6233,VALID,159,VALID,1.76563,
2009-10-21, 00:54:04,VALID,918.177,VALID,0,VALID,97.8542,VALID,0,VALID,19.6233,VALID,142,VALID,0.831641,
2009-10-21, 00:55:04,VALID,918.207,VALID,0,VALID,97.8542,VALID,0,VALID,19.6023,VALID,145,VALID,1.67031,
2009-10-21, 00:56:04,VALID,918.159,VALID,0,VALID,97.8618,VALID,0,VALID,19.6428,VALID,155,VALID,1.34336,
2009-10-21, 00:57:04,VALID,918.192,VALID,0,VALID,97.8618,VALID,0,VALID,19.6428,VALID,166,VALID,1.62109,
2009-10-21, 00:58:04,VALID,918.175,VALID,0,VALID,97.8618,VALID,0,VALID,19.6428,VALID,153,VALID,1.1043,
2009-10-21, 00:59:04,VALID,918.148,VALID,0,VALID,97.8542,VALID,0,VALID,19.6623,VALID,153,VALID,1.61523,
2009-10-21, 01:00:04,VALID,918.106,VALID,0,VALID,97.8618,VALID,0,VALID,19.6623,VALID,167,VALID,1.43242,
2009-10-21, 01:01:04,VALID,918.061,VALID,0,VALID,97.8465,VALID,0,VALID,19.6818,VALID,155,VALID,0.775781,
2009-10-21, 01:02:04,VALID,918.036,VALID,0,VALID,97.8389,VALID,0,VALID,19.6608,VALID,127,VALID,1.01016,
2009-10-21, 01:03:04,VALID,918.014,VALID,0,VALID,97.8542,VALID,0,VALID,19.6608,VALID,158,VALID,0.935547,
2009-10-21, 01:04:04,VALID,917.994,VALID,0,VALID,97.8465,VALID,0,VALID,19.6413,VALID,143,VALID,0.933203,
2009-10-21, 01:05:04,VALID,917.965,VALID,0,VALID,97.8542,VALID,0,VALID,19.6413,VALID,135,VALID,0.905469,
2009-10-21, 01:06:04,VALID,917.982,VALID,0,VALID,97.8313,VALID,0,VALID,19.6818,VALID,135,VALID,0.554297,
2009-10-21, 01:07:04,VALID,917.978,VALID,0,VALID,97.8313,VALID,0,VALID,19.6818,VALID,135,VALID,0.885156,
2009-10-21, 01:08:04,VALID,917.967,VALID,0,VALID,97.8389,VALID,0,VALID,19.6623,VALID,135,VALID,0.785547,
2009-10-21, 01:09:04,VALID,917.925,VALID,0,VALID,97.8313,VALID,0,VALID,19.6233,VALID,135,VALID,0.678516,
2009-10-21, 01:10:04,VALID,917.911,VALID,0,VALID,97.8313,VALID,0,VALID,19.6428,VALID,135,VALID,0.7,
2009-10-21, 01:11:04,VALID,917.869,VALID,0,VALID,97.8542,VALID,0,VALID,19.6428,VALID,135,VALID,0.380469,
2009-10-21, 01:12:04,VALID,917.86,VALID,0,VALID,97.8389,VALID,0,VALID,19.6233,VALID,135,VALID,1.03633,
2009-10-21, 01:13:04,VALID,917.806,VALID,0,VALID,97.816,VALID,0,VALID,19.6233,VALID,134,VALID,1.08438,
2009-10-21, 01:14:04,VALID,917.79,VALID,0,VALID,97.8313,VALID,0,VALID,19.5633,VALID,134,VALID,0.817969,
2009-10-21, 01:15:04,VALID,917.798,VALID,0,VALID,97.8389,VALID,0,VALID,19.5438,VALID,134,VALID,0.935156,
2009-10-21, 01:16:04,VALID,917.745,VALID,0,VALID,97.8084,VALID,0,VALID,19.5453,VALID,127,VALID,1.03945,
2009-10-21, 01:17:04,VALID,917.72,VALID,0,VALID,97.8389,VALID,0,VALID,19.5258,VALID,127,VALID,0.953906,
2009-10-21, 01:18:04,VALID,917.686,VALID,0,VALID,97.8084,VALID,0,VALID,19.5063,VALID,127,VALID,1.02305,
2009-10-21, 01:19:04,VALID,917.673,VALID,0,VALID,97.8008,VALID,0,VALID,19.4673,VALID,127,VALID,0.901172,
2009-10-21, 01:20:04,VALID,917.669,VALID,0,VALID,97.816,VALID,0,VALID,19.4478,VALID,127,VALID,0.968359,
2009-10-21, 01:21:04,VALID,917.672,VALID,0,VALID,97.7932,VALID,0,VALID,19.4088,VALID,127,VALID,1.03516,
2009-10-21, 01:22:04,VALID,917.671,VALID,0,VALID,97.8465,VALID,0,VALID,19.3893,VALID,127,VALID,0.739062,
2009-10-21, 01:23:04,VALID,917.646,VALID,0,VALID,97.8542,VALID,0,VALID,19.3893,VALID,127,VALID,0.849609,
2009-10-21, 01:24:04,VALID,917.637,VALID,0,VALID,97.8465,VALID,0,VALID,19.3684,VALID,127,VALID,0.726953,
2009-10-21, 01:25:04,VALID,917.624,VALID,0,VALID,97.8618,VALID,0,VALID,19.3893,VALID,127,VALID,0.981641,
2009-10-21, 01:26:04,VALID,917.596,VALID,0,VALID,97.8618,VALID,0,VALID,19.3893,VALID,127,VALID,0.835938,
2009-10-21, 01:27:04,VALID,917.604,VALID,0,VALID,97.877,VALID,0,VALID,19.4088,VALID,127,VALID,0.314063,
2009-10-21, 01:28:04,VALID,917.623,VALID,0,VALID,97.8847,VALID,0,VALID,19.4283,VALID,127,VALID,0.809375,
2009-10-21, 01:29:04,VALID,917.623,VALID,0,VALID,97.8694,VALID,0,VALID,19.4283,VALID,127,VALID,0.448438,
2009-10-21, 01:30:04,VALID,917.651,VALID,0,VALID,97.8847,VALID,0,VALID,19.4478,VALID,164,VALID,0.864062,
2009-10-21, 01:31:04,VALID,917.648,VALID,0,VALID,97.877,VALID,0,VALID,19.4478,VALID,174,VALID,0.779297,
2009-10-21, 01:32:04,VALID,917.692,VALID,0,VALID,97.8618,VALID,0,VALID,19.4478,VALID,116,VALID,1.49102,
2009-10-21, 01:33:04,VALID,917.661,VALID,0,VALID,97.8465,VALID,0,VALID,19.4478,VALID,116,VALID,0.726172,
2009-10-21, 01:34:04,VALID,917.667,VALID,0,VALID,97.8237,VALID,0,VALID,19.3893,VALID,116,VALID,0.360156,
2009-10-21, 01:35:04,VALID,917.676,VALID,0,VALID,97.8389,VALID,0,VALID,19.4088,VALID,116,VALID,0.469141,
2009-10-21, 01:36:04,VALID,917.642,VALID,0,VALID,97.8847,VALID,0,VALID,19.3893,VALID,116,VALID,0.711719,
2009-10-21, 01:37:04,VALID,917.672,VALID,0,VALID,97.8618,VALID,0,VALID,19.3893,VALID,116,VALID,0.426562,
2009-10-21, 01:38:04,VALID,917.653,VALID,0,VALID,97.8847,VALID,0,VALID,19.3893,VALID,116,VALID,0.380469,
2009-10-21, 01:39:04,VALID,917.679,VALID,0,VALID,97.8923,VALID,0,VALID,19.4088,VALID,116,VALID,0.748047,
2009-10-21, 01:40:04,VALID,917.638,VALID,0,VALID,97.8084,VALID,0,VALID,19.3503,VALID,116,VALID,0.352734,
2009-10-21, 01:41:04,VALID,917.653,VALID,0,VALID,97.816,VALID,0,VALID,19.3308,VALID,116,VALID,0.441797,
2009-10-21, 01:42:04,VALID,917.668,VALID,0,VALID,97.816,VALID,0,VALID,19.2918,VALID,116,VALID,0.458594,
2009-10-21, 01:43:04,VALID,917.669,VALID,0,VALID,97.8084,VALID,0,VALID,19.2319,VALID,116,VALID,0.573438,
2009-10-21, 01:44:04,VALID,917.669,VALID,0,VALID,97.8542,VALID,0,VALID,19.2319,VALID,116,VALID,0.848437,
2009-10-21, 01:45:04,VALID,917.635,VALID,0,VALID,97.8389,VALID,0,VALID,19.2334,VALID,116,VALID,0.878516,
2009-10-21, 01:46:04,VALID,917.588,VALID,0,VALID,97.8694,VALID,0,VALID,19.2334,VALID,116,VALID,0.815234,
2009-10-21, 01:47:04,VALID,917.559,VALID,0,VALID,97.8389,VALID,0,VALID,19.1944,VALID,116,VALID,0.750391,
2009-10-21, 01:48:04,VALID,917.531,VALID,0,VALID,97.8313,VALID,0,VALID,19.1554,VALID,116,VALID,0.730078,
2009-10-21, 01:49:04,VALID,917.506,VALID,0,VALID,97.7779,VALID,0,VALID,19.1164,VALID,116,VALID,0.830859,
2009-10-21, 01:50:04,VALID,917.479,VALID,0,VALID,97.8542,VALID,0,VALID,19.0564,VALID,116,VALID,0.634375,
2009-10-21, 01:51:04,VALID,917.45,VALID,0,VALID,97.877,VALID,0,VALID,19.0759,VALID,116,VALID,0.321094,
2009-10-21, 01:52:04,VALID,917.45,VALID,0,VALID,97.8465,VALID,0,VALID,19.0579,VALID,116,VALID,0.504297,
2009-10-21, 01:53:04,VALID,917.449,VALID,0,VALID,97.8542,VALID,0,VALID,19.0579,VALID,116,VALID,0.458984,
2009-10-21, 01:54:04,VALID,917.435,VALID,0,VALID,97.8923,VALID,0,VALID,19.0579,VALID,116,VALID,0.258594,
2009-10-21, 01:55:04,VALID,917.403,VALID,0,VALID,97.9075,VALID,0,VALID,19.0579,VALID,116,VALID,0.149219,
2009-10-21, 01:56:04,VALID,917.381,VALID,0,VALID,97.9152,VALID,0,VALID,19.0384,VALID,116,VALID,0.237109,
2009-10-21, 01:57:04,VALID,917.36,VALID,0,VALID,97.9152,VALID,0,VALID,19.0384,VALID,116,VALID,0.260156,
2009-10-21, 01:58:04,VALID,917.373,VALID,0,VALID,97.9304,VALID,0,VALID,19.0593,VALID,116,VALID,0,
2009-10-21, 01:59:04,VALID,917.384,VALID,0,VALID,97.8999,VALID,0,VALID,19.0384,VALID,116,VALID,0,
2009-10-21, 02:00:04,VALID,917.368,VALID,0,VALID,97.9152,VALID,0,VALID,19.0384,VALID,116,VALID,0.442969,
2009-10-21, 02:01:04,VALID,917.409,VALID,0,VALID,97.938,VALID,0,VALID,19.0189,VALID,116,VALID,0.602734,
2009-10-21, 02:02:04,VALID,917.38,VALID,0,VALID,97.9075,VALID,0,VALID,19.0384,VALID,116,VALID,0.875391,
2009-10-21, 02:03:04,VALID,917.378,VALID,0,VALID,97.9152,VALID,0.107441,VALID,19.0189,VALID,116,VALID,0.553125,
2009-10-21, 02:04:04,VALID,917.395,VALID,0,VALID,97.9456,VALID,0,VALID,19.0579,VALID,140,VALID,1.37266,
2009-10-21, 02:05:04,VALID,917.38,VALID,0,VALID,97.9533,VALID,0,VALID,19.0579,VALID,140,VALID,1.07383,
2009-10-21, 02:06:04,VALID,917.398,VALID,0,VALID,97.9228,VALID,0,VALID,19.1149,VALID,97,VALID,0.802344,
2009-10-21, 02:07:04,VALID,917.365,VALID,0,VALID,97.9533,VALID,0,VALID,19.0969,VALID,97,VALID,0.926172,
2009-10-21, 02:08:04,VALID,917.319,VALID,0,VALID,97.877,VALID,0,VALID,19.0774,VALID,96,VALID,0.836719,
2009-10-21, 02:09:04,VALID,917.321,VALID,0,VALID,97.8389,VALID,0,VALID,19.0189,VALID,63,VALID,1.56172,
2009-10-21, 02:10:04,VALID,917.268,VALID,0,VALID,97.8389,VALID,0,VALID,18.9604,VALID,53,VALID,1.61992,
2009-10-21, 02:11:04,VALID,917.282,VALID,0,VALID,97.8999,VALID,0,VALID,18.9604,VALID,53,VALID,0.710547,
2009-10-21, 02:12:04,VALID,917.275,VALID,0,VALID,97.9304,VALID,0,VALID,18.9409,VALID,57,VALID,0.704297,
2009-10-21, 02:13:04,VALID,917.253,VALID,0,VALID,97.9228,VALID,0,VALID,18.9604,VALID,112,VALID,0.810938,
2009-10-21, 02:14:04,VALID,917.261,VALID,0,VALID,97.9228,VALID,0,VALID,18.9409,VALID,112,VALID,0.705859,
2009-10-21, 02:15:04,VALID,917.277,VALID,0,VALID,97.938,VALID,0,VALID,18.9604,VALID,112,VALID,1.24023,
2009-10-21, 02:16:04,VALID,917.295,VALID,0,VALID,97.9228,VALID,0,VALID,18.9604,VALID,112,VALID,1.13945,
2009-10-21, 02:17:04,VALID,917.301,VALID,0,VALID,97.9304,VALID,0,VALID,18.9604,VALID,112,VALID,1.23867,
2009-10-21, 02:18:04,VALID,917.306,VALID,0,VALID,97.9533,VALID,0,VALID,18.9994,VALID,138,VALID,1.1668,
2009-10-21, 02:19:04,VALID,917.272,VALID,0,VALID,97.9685,VALID,0,VALID,19.0189,VALID,112,VALID,1.81641,
2009-10-21, 02:20:04,VALID,917.247,VALID,0,VALID,97.9761,VALID,0,VALID,19.0579,VALID,133,VALID,1.78125,
2009-10-21, 02:21:04,VALID,917.216,VALID,0,VALID,97.938,VALID,0,VALID,19.1164,VALID,168,VALID,1.28203,
2009-10-21, 02:22:04,VALID,917.144,VALID,0,VALID,97.9609,VALID,0,VALID,19.1554,VALID,208,VALID,0.724609,
2009-10-21, 02:23:04,VALID,917.146,VALID,0,VALID,97.9533,VALID,0.107441,VALID,19.1749,VALID,208,VALID,0.214844,
2009-10-21, 02:24:04,VALID,917.135,VALID,0,VALID,97.9456,VALID,0,VALID,19.2528,VALID,208,VALID,1.13164,
2009-10-21, 02:25:04,VALID,917.139,VALID,0,VALID,97.938,VALID,0,VALID,19.2723,VALID,175,VALID,1.34609,
2009-10-21, 02:26:04,VALID,917.164,VALID,0,VALID,97.9152,VALID,0,VALID,19.2514,VALID,167,VALID,1.07266,
2009-10-21, 02:27:04,VALID,917.151,VALID,0,VALID,97.9304,VALID,0.107441,VALID,19.2319,VALID,167,VALID,0.976953,
2009-10-21, 02:28:04,VALID,917.164,VALID,0,VALID,97.938,VALID,0.107441,VALID,19.2319,VALID,167,VALID,1.27461,
2009-10-21, 02:29:04,VALID,917.12,VALID,0,VALID,97.9228,VALID,0,VALID,19.2709,VALID,182,VALID,1.3582,
2009-10-21, 02:30:04,VALID,917.126,VALID,0,VALID,97.8999,VALID,0.107441,VALID,19.2904,VALID,188,VALID,1.00312,
2009-10-21, 02:31:04,VALID,917.085,VALID,0,VALID,97.938,VALID,0.107441,VALID,19.2514,VALID,188,VALID,0.568359,
2009-10-21, 02:32:04,VALID,917.077,VALID,0,VALID,97.9228,VALID,0,VALID,19.2528,VALID,188,VALID,0.810547,
2009-10-21, 02:33:04,VALID,917.04,VALID,0,VALID,97.9228,VALID,0.107441,VALID,19.1734,VALID,188,VALID,0.887109,
2009-10-21, 02:34:05,VALID,917.056,VALID,0,VALID,97.9456,VALID,0,VALID,19.2139,VALID,188,VALID,0.888281,
2009-10-21, 02:35:05,VALID,917.049,VALID,0,VALID,97.9228,VALID,0,VALID,19.2334,VALID,188,VALID,1.0793,
2009-10-21, 02:36:05,VALID,917.092,VALID,0,VALID,97.9228,VALID,0,VALID,19.2918,VALID,188,VALID,0.698828,
2009-10-21, 02:37:05,VALID,917.113,VALID,0,VALID,97.938,VALID,0.107441,VALID,19.2514,VALID,188,VALID,1.00391,
2009-10-21, 02:38:05,VALID,917.104,VALID,0,VALID,97.938,VALID,0.107441,VALID,19.2904,VALID,195,VALID,1.39531,
2009-10-21, 02:39:05,VALID,917.13,VALID,0,VALID,97.938,VALID,0.107441,VALID,19.3084,VALID,195,VALID,1.33047,
2009-10-21, 02:40:05,VALID,917.095,VALID,0,VALID,97.9075,VALID,0.107441,VALID,19.3294,VALID,195,VALID,0.741406,
2009-10-21, 02:41:05,VALID,917.046,VALID,0,VALID,97.9075,VALID,0.214882,VALID,19.3489,VALID,196,VALID,1.31328,
2009-10-21, 02:42:05,VALID,917.043,VALID,0,VALID,97.9075,VALID,0.107441,VALID,19.3474,VALID,196,VALID,0.890234,
2009-10-21, 02:43:05,VALID,917.022,VALID,0,VALID,97.9075,VALID,0.107441,VALID,19.3489,VALID,196,VALID,0.928906,
2009-10-21, 02:44:05,VALID,917.032,VALID,0,VALID,97.9075,VALID,0.214882,VALID,19.3474,VALID,196,VALID,1.56406,
2009-10-21, 02:45:05,VALID,917.007,VALID,0,VALID,97.9075,VALID,0.214882,VALID,19.3669,VALID,196,VALID,1.22969,
2009-10-21, 02:46:05,VALID,917.027,VALID,0,VALID,97.9152,VALID,0.107441,VALID,19.4463,VALID,199,VALID,1.69375,
2009-10-21, 02:47:05,VALID,917.016,VALID,0,VALID,97.9075,VALID,0.214882,VALID,19.4268,VALID,199,VALID,0.783594,
2009-10-21, 02:48:05,VALID,916.981,VALID,0,VALID,97.8999,VALID,0.214882,VALID,19.4268,VALID,199,VALID,1.01563,
2009-10-21, 02:49:05,VALID,917.023,VALID,0,VALID,97.9075,VALID,0.107441,VALID,19.4074,VALID,199,VALID,0.828906,
2009-10-21, 02:50:05,VALID,917.025,VALID,0,VALID,97.9152,VALID,0.214882,VALID,19.4074,VALID,199,VALID,0.917578,
2009-10-21, 02:51:05,VALID,917.01,VALID,0,VALID,97.8999,VALID,0.107441,VALID,19.4268,VALID,170,VALID,1.54414,
2009-10-21, 02:52:05,VALID,917.025,VALID,0,VALID,97.9075,VALID,0.214882,VALID,19.4658,VALID,152,VALID,1.38945,
2009-10-21, 02:53:05,VALID,917.024,VALID,0,VALID,97.8847,VALID,0.107441,VALID,19.4673,VALID,181,VALID,1.45469,
2009-10-21, 02:54:05,VALID,917.016,VALID,0,VALID,97.8923,VALID,0,VALID,19.4868,VALID,209,VALID,1.05938,
2009-10-21, 02:55:05,VALID,917.041,VALID,0,VALID,97.877,VALID,0.107441,VALID,19.4868,VALID,207,VALID,1.40547,
2009-10-21, 02:56:05,VALID,917.066,VALID,0,VALID,97.8618,VALID,0,VALID,19.4868,VALID,182,VALID,1.04648,
2009-10-21, 02:57:05,VALID,917.101,VALID,0,VALID,97.8618,VALID,0.107441,VALID,19.4268,VALID,182,VALID,1.15547,
2009-10-21, 02:58:05,VALID,917.155,VALID,0,VALID,97.877,VALID,0,VALID,19.4478,VALID,166,VALID,0.928125,
2009-10-21, 02:59:05,VALID,917.142,VALID,0,VALID,97.8618,VALID,0,VALID,19.3879,VALID,165,VALID,0.712891,
2009-10-21, 03:00:05,VALID,917.181,VALID,0,VALID,97.8389,VALID,0.107441,VALID,19.3893,VALID,141,VALID,0.907812,
2009-10-21, 03:01:05,VALID,917.158,VALID,0,VALID,97.8694,VALID,0,VALID,19.3684,VALID,141,VALID,1.0707,
2009-10-21, 03:02:05,VALID,917.199,VALID,0,VALID,97.877,VALID,0,VALID,19.3893,VALID,141,VALID,0.846484,
2009-10-21, 03:03:05,VALID,917.21,VALID,0,VALID,97.8465,VALID,0,VALID,19.3684,VALID,141,VALID,0.810547,
2009-10-21, 03:04:05,VALID,917.23,VALID,0,VALID,97.877,VALID,0.107441,VALID,19.3893,VALID,141,VALID,1.16133,
2009-10-21, 03:05:05,VALID,917.236,VALID,0,VALID,97.8389,VALID,0,VALID,19.3698,VALID,143,VALID,1.44961,
2009-10-21, 03:06:05,VALID,917.227,VALID,0,VALID,97.8542,VALID,0,VALID,19.3489,VALID,173,VALID,1.00586,
2009-10-21, 03:07:05,VALID,917.233,VALID,0,VALID,97.8847,VALID,0,VALID,19.3698,VALID,145,VALID,1.61953,
2009-10-21, 03:08:05,VALID,917.245,VALID,0,VALID,97.8618,VALID,0,VALID,19.3489,VALID,152,VALID,1.4043,
2009-10-21, 03:09:05,VALID,917.225,VALID,0,VALID,97.8618,VALID,0.107441,VALID,19.3698,VALID,195,VALID,1.27656,
2009-10-21, 03:10:05,VALID,917.27,VALID,0,VALID,97.8694,VALID,0,VALID,19.3698,VALID,148,VALID,1.55156,
2009-10-21, 03:11:05,VALID,917.297,VALID,0,VALID,97.8847,VALID,0.107441,VALID,19.3684,VALID,135,VALID,1.37266,
2009-10-21, 03:12:05,VALID,917.325,VALID,0,VALID,97.8847,VALID,0,VALID,19.3893,VALID,165,VALID,1.50742,
2009-10-21, 03:13:05,VALID,917.308,VALID,0,VALID,97.9075,VALID,0,VALID,19.3893,VALID,203,VALID,1.20938,
2009-10-21, 03:14:05,VALID,917.331,VALID,0,VALID,97.8694,VALID,0.107441,VALID,19.3879,VALID,159,VALID,1.14336,
2009-10-21, 03:15:05,VALID,917.318,VALID,0,VALID,97.8694,VALID,0,VALID,19.4088,VALID,191,VALID,1.07422,
2009-10-21, 03:16:05,VALID,917.313,VALID,0,VALID,97.877,VALID,0,VALID,19.4478,VALID,178,VALID,1.25586,
2009-10-21, 03:17:05,VALID,917.336,VALID,0,VALID,97.8923,VALID,0.107441,VALID,19.4268,VALID,157,VALID,0.703906,
2009-10-21, 03:18:05,VALID,917.341,VALID,0,VALID,97.8542,VALID,0.107441,VALID,19.4478,VALID,156,VALID,0.539063,
2009-10-21, 03:19:05,VALID,917.339,VALID,0,VALID,97.8465,VALID,0,VALID,19.4283,VALID,156,VALID,0.562891,
2009-10-21, 03:20:05,VALID,917.329,VALID,0,VALID,97.8313,VALID,0.107441,VALID,19.4074,VALID,155,VALID,0.425781,
2009-10-21, 03:21:05,VALID,917.289,VALID,0,VALID,97.8313,VALID,0,VALID,19.4088,VALID,146,VALID,0.416016,
2009-10-21, 03:22:05,VALID,917.309,VALID,0,VALID,97.8237,VALID,0,VALID,19.3893,VALID,142,VALID,1.16602,
2009-10-21, 03:23:05,VALID,917.303,VALID,0,VALID,97.8694,VALID,0,VALID,19.4088,VALID,138,VALID,2.10352,
2009-10-21, 03:24:05,VALID,917.291,VALID,0,VALID,97.8389,VALID,0,VALID,19.4478,VALID,161,VALID,1.49063,
2009-10-21, 03:25:05,VALID,917.286,VALID,0,VALID,97.8465,VALID,0,VALID,19.4283,VALID,158,VALID,0.494141,
2009-10-21, 03:26:05,VALID,917.315,VALID,0,VALID,97.8313,VALID,0,VALID,19.4283,VALID,158,VALID,0.780078,
2009-10-21, 03:27:05,VALID,917.32,VALID,0,VALID,97.8389,VALID,0,VALID,19.4283,VALID,137,VALID,1.44766,
2009-10-21, 03:28:05,VALID,917.3,VALID,0,VALID,97.8084,VALID,0,VALID,19.4478,VALID,159,VALID,1.32773,
2009-10-21, 03:29:05,VALID,917.293,VALID,0,VALID,97.7779,VALID,0,VALID,19.4688,VALID,159,VALID,1.09492,
2009-10-21, 03:30:05,VALID,917.332,VALID,0,VALID,97.7932,VALID,0,VALID,19.4283,VALID,159,VALID,1.28203,
2009-10-21, 03:31:05,VALID,917.343,VALID,0,VALID,97.7856,VALID,0,VALID,19.4478,VALID,163,VALID,1.90273,
2009-10-21, 03:32:05,VALID,917.352,VALID,0,VALID,97.8084,VALID,0,VALID,19.4868,VALID,181,VALID,1.83281,
2009-10-21, 03:33:05,VALID,917.354,VALID,0,VALID,97.7703,VALID,0,VALID,19.5063,VALID,196,VALID,0.50625,
2009-10-21, 03:34:05,VALID,917.391,VALID,0,VALID,97.7627,VALID,0,VALID,19.4868,VALID,104,VALID,0.952734,
2009-10-21, 03:35:05,VALID,917.402,VALID,0,VALID,97.7246,VALID,0,VALID,19.4673,VALID,140,VALID,1.43633,
2009-10-21, 03:36:05,VALID,917.433,VALID,0,VALID,97.7398,VALID,0,VALID,19.4868,VALID,183,VALID,1.09336,
2009-10-21, 03:37:05,VALID,917.433,VALID,0,VALID,97.7246,VALID,0,VALID,19.5063,VALID,183,VALID,1.125,
2009-10-21, 03:38:05,VALID,917.431,VALID,0,VALID,97.7551,VALID,0,VALID,19.5258,VALID,183,VALID,0.944531,
2009-10-21, 03:39:05,VALID,917.461,VALID,0,VALID,97.7322,VALID,0,VALID,19.4868,VALID,183,VALID,0.880859,
2009-10-21, 03:40:05,VALID,917.43,VALID,0,VALID,97.7551,VALID,0,VALID,19.4868,VALID,160,VALID,1.35156,
2009-10-21, 03:41:05,VALID,917.435,VALID,0,VALID,97.7398,VALID,0,VALID,19.5063,VALID,144,VALID,0.898047,
2009-10-21, 03:42:05,VALID,917.412,VALID,0,VALID,97.7093,VALID,0,VALID,19.4868,VALID,116,VALID,0.760156,